Uncategorized

2021 Ratings: Jackson

How Are Speed Ratings Calculated?

Don’t tell anyone, but I combined the JV meet from last night and today’s races into one.

Girls Adjustment: -9
Boys Adjustment: -8

GradeNameTimeTeamRating
12Julia Flynn17:22.3Traverse City Central175.6
12Rylee Tolson18:07.5Stockbridge160.5
12Madison Foster18:15.9Temperance Bedford157.7
12Sarah Forsyth18:22.5Ann Arbor Pioneer155.5
11Emily Cooper18:29.5Ann Arbor Pioneer153.2
12Cookie Baugh18:32.5Ann Arbor Pioneer152.2
10Alexandra Brigham18:57.2Clarkston143.9
12Maddie Stern18:58.9Saline143.4
9Ashley Sobczynski19:00.0Holly143.0
12Lauren Sancrant19:00.9Temperance Bedford142.7
9Presley Allen19:01.2Mendon142.6
12Charlotte Batra19:02.0Ann Arbor Pioneer142.3
11Liliane Aittama19:05.9South Lyon East141.0
12Madi Wood19:07.2Saline140.6
10Alexis Ball19:11.4Traverse City Central139.2
10Natalie Mello19:11.5Ann Arbor Pioneer139.2
10Laney Alig19:12.9Saline138.7
11Isabell Kulick19:16.6Salem137.5
9Ellie Schenkelberger19:16.9Traverse City Central137.4
10Madison Osterberg19:18.8Jackson Lumen Christi136.7
10Ella Kirkwood19:21.3Traverse City Central135.9
11Mia Rogan19:23.2Saline135.3
11Caroline Vance19:25.0Ann Arbor Skyline134.7
9Alena Blumberg19:26.7Dexter134.1
11Cara Newman19:33.6Canton131.8
12Alyna Lewis19:37.2Parma Western130.6
12Faith Smith19:37.4Jackson Lumen Christi130.5
11Aubrey Stager19:38.2Saline130.3
11Natalie Kessler19:45.6Ann Arbor Skyline127.8
11Kathleen Venhuizen19:49.1Traverse City Central126.6
10Allison Mayer19:49.5Ann Arbor Skyline126.5
10Ella Showerman19:50.3South Lyon East126.2
12Lexi Deighan19:53.0Birmingham Seaholm125.3
12Gianna Hoving19:56.8Ann Arbor Gabriel Richard124.1
11Ana Dunfee20:01.6Kalamazoo Loy Norrix122.5
11Elaina Rondeau20:02.8Troy122.1
10Olivia Perrine20:03.6Jackson121.8
12Thea Schley20:04.4Canton121.5
12Allison Stowe20:05.9Salem121.0
11Maisie Konwinski20:07.1Troy120.6
11Lola Reimers20:08.6Traverse City Central120.1
10Lily Hetzel20:10.2Salem119.6
9Corynn Gady20:10.3Saline119.6
12Aileen Liu20:13.8Troy118.4
11Rebekah Asselin20:16.9Temperance Bedford117.4
9Sienna Snyder20:19.2Saline116.6
12Marian Avila20:19.3Ann Arbor Gabriel Richard116.6
10Alexis Pickerel20:19.6Canton116.5
11Cadence Schultz20:21.5East Kentwood115.8
12Elizabeth Dancey20:22.0Salem115.7
11Chesney Wilke20:24.5Tecumseh114.8
11Lydia Cocciolone20:26.4Ann Arbor Skyline114.2
11Lexie Brown20:28.4Hartland113.5
9Abby Roth20:29.7Saline113.1
9Annabel O’Haver20:30.4Dexter112.9
9Zoe Howard20:30.6Hartland112.8
10Sophia Reynolds20:31.3Hanover-Horton112.6
12Hannah McComas20:31.8Dexter112.4
9Abigail Short20:34.5Berkley111.5
12Brooklyn Rochow20:34.6Stockbridge111.5
11Mya Orner20:35.0Temperance Bedford111.3
12Kate Meinecke20:36.0Royal Oak111.0
12Lydia Alig20:36.9Saline110.7
9Grace Roth20:40.8Saline109.4
9Madie Miller20:41.5Troy109.2
11Ashlyn Kephart20:42.7Lansing Christian108.8
10Sarah Barnett20:44.7Royal Oak108.1
11Cate Cotter20:45.2Clarkston107.9
11Bella Grant20:45.9South Lyon East107.7
9Layla Lopez20:48.8Jackson Lumen Christi106.7
10Anna Reineck20:49.8Clarkston106.4
9Sofia Bogard20:49.8Kalamazoo Loy Norrix106.4
12Claire Endres20:50.2Saline106.3
10Bailey Burt20:50.5Saline106.2
12Kaitlyn Thomas20:53.1Battle Creek Lakeview105.3
11Alexandra Cabaj20:54.1Hartland105.0
10Lucy Woehlke20:56.2Saline104.3
10Erin Stuk20:56.7Ann Arbor Gabriel Richard104.1
10Kate Varitek20:56.8Dexter104.1
10Nora Schley20:57.0Canton104.0
11Annalisa DeGuzman20:57.2Ann Arbor Skyline103.9
11Allison Nutt20:59.0Ann Arbor Pioneer103.3
9Ayla Balazer20:59.9Ann Arbor Skyline103.0
12Ava Gatto21:00.2Canton102.9
12Mackenzie Montigano21:01.7Clarkston102.4
11Madi Heinrich21:02.6Temperance Bedford102.1
10Katie Hume21:03.2Ann Arbor Pioneer101.9
12Ashley Mitchell21:03.3Dexter101.9
10Samantha Coots21:05.4Clinton101.2
10Alyssa Hinton21:06.5Battle Creek Lakeview100.8
12Lauren May21:07.6Traverse City Central100.5
12Iris Ding21:08.6Salem100.1
11Megan Roberts21:08.8Hillsdale Academy100.1
9Rosa Brody21:09.4Canton99.9
9Megan Fannon21:10.2South Lyon East99.6
11Hope Wilkes21:12.5Brooklyn Columbia Central98.8
12Annissa Sisson21:12.6Dexter98.8
11Charlotte Gullion21:16.0Troy97.7
10Avery Bogdasarian21:16.8Saline97.4
10Batoul Hamka21:16.9Dearborn97.4
10Lillianna Gumber21:19.9Salem96.4
11Reaghan Babrick21:21.0Kalamazoo Loy Norrix96.0
11Gabrielle Osterberg21:22.6Jackson Lumen Christi95.5
10Jaden Sarg-Lopez21:23.1Battle Creek Lakeview95.3
11Cassandra Gallagher21:26.8Sault Ste. Marie94.1
10Amelia Isackson21:28.0Kalamazoo Loy Norrix93.7
9Lainey Yearling21:29.2Coldwater93.3
10Celia Begosso21:29.6Ann Arbor Skyline93.1
11Isabelle Fairless21:30.7Royal Oak92.8
12Ava Hughes21:31.1Salem92.6
11Amyla Eberhart21:31.8South Lyon East92.4
10Grace Schook21:31.9Dearborn92.4
12Nicole Merchant21:32.2Birmingham Seaholm92.3
10Allison Giroux21:34.0Troy91.7
10Nora Miller21:34.1Clarkston91.6
11Sanya Ahmed21:37.0Canton90.7
11Emily Stevenson21:38.2Tecumseh90.3
10Cylee Elkins21:40.3Clinton89.6
11Gianna-Marie Schub…21:40.4Ann Arbor Gabriel Richard89.5
12Annaliese Bol21:41.7Kalamazoo Loy Norrix89.1
12Samantha Turner21:45.1Birmingham Seaholm88.0
9Kylie Pung21:49.4Howell86.5
10Izabella Loubser21:50.7Temperance Bedford86.1
9Macy Daniels21:53.2Kalamazoo Loy Norrix85.3
10Madison Basham21:55.8Grass Lake84.4
12Madeleine Wisniewski21:56.2Hartland84.3
12Kaitelyn Walker21:58.3Stockbridge83.6
10Cecilia Irwin21:58.9Royal Oak83.4
12Mia Judd21:59.5Lansing Christian83.2
9Madison Morris21:59.9Tecumseh83.0
9Chloe Stalhood22:00.4Hillsdale82.9
9Clara Peikert22:04.3Ann Arbor Pioneer81.6
12Corinne DiFalco22:04.6Royal Oak81.5
11Whitney Wilkinson22:07.1Hillsdale Academy80.6
12Caitlyn Donnelly22:07.7Ann Arbor Skyline80.4
10Aubrey Burke22:08.1Salem80.3
10Sydney Fazekas22:10.3Jackson Lumen Christi79.6
9Jessica Warren22:11.0Tecumseh79.3
10Anoush Smith22:13.9Birmingham Seaholm78.4
10Cameron Miller22:14.3Kalamazoo Loy Norrix78.2
12Madison Magda22:15.2Jonesville77.9
12Torionna Waterman22:16.2East Kentwood77.6
11Elizabeth Beck22:18.2Ann Arbor Skyline76.9
9Caroline Roberts22:18.4Hillsdale Academy76.9
10Allison Bowles22:19.7Clinton76.4
12Haniya Frayer22:21.5Kalamazoo Loy Norrix75.8
11Paige Ratliff22:21.8Battle Creek Lakeview75.7
11Justice Prins22:22.3Parma Western75.6
11Lillian Heydenburg22:23.4Parma Western75.2
11Quinn Hilla22:23.8Dexter75.1
9Grace Bullock22:25.7Grass Lake74.4
9Zoey Sierer22:26.9Clinton74.0
11Fiona Shangguan22:27.4Ann Arbor Skyline73.9
10Madeleine Andrzejak22:27.5Berkley73.8
10Maura Lichiello22:27.6Howell73.8
11Kelsey Knape22:27.9Tecumseh73.7
9Kayley Cleary22:31.9Howell72.4
9Alexa Daniels22:32.0Ann Arbor Gabriel Richard72.3
9Olivia Shaieb22:32.2Dexter72.3
10Claire Walker22:32.4Clarkston72.2
11Jane Barnett22:32.8Royal Oak72.1
11Naomi Kaczor22:32.9Ann Arbor Pioneer72.0
12Samantha Rousseau22:33.7Salem71.8
9Chloe DeLand22:34.2Howell71.6
9Sophia McKenna22:34.9Hartland71.4
12Kate O’Neil22:35.9Brooklyn Columbia Central71.0
12Korin Whitcomb22:36.7Sturgis70.8
11Elise Bodary22:36.9Ann Arbor Gabriel Richard70.7
11Maria Bolanos22:37.0Birmingham Seaholm70.7
12Kylee Groves22:37.0Jonesville70.7
11Gwen McGuire22:37.1Birmingham Seaholm70.6
9Marina Walz22:37.8Parma Western70.4
9Ella Walton22:39.5Hillsdale Academy69.8
12Chloe Fornetti22:39.6East Kentwood69.8
9Avery Lawrence22:39.7Dexter69.8
12Kaelyn Pluta22:39.7Parma Western69.8
12Kate Froedtert22:40.0Jackson69.7
9Erin Gallagher22:41.0South Lyon East69.3
12Meghan McGill22:41.6Dexter69.1
12Jessica Furman22:42.2Jackson Lumen Christi68.9
11Gracey Bento22:42.9East Kentwood68.7
11Emma Bushroe22:43.5Temperance Bedford68.5
9Irene Oh22:44.2Troy68.3
9Jessica Booher22:44.7Holly68.1
9Sarah King22:45.1Clinton68.0
11Clare Miller22:45.9Ann Arbor Gabriel Richard67.7
10Frances Walewski22:47.7Salem67.1
11Miranda Nielsen22:48.2Ann Arbor Skyline66.9
10Madelyn Norman22:50.4Napoleon66.2
11Antonia Bruckman22:52.3Dexter65.6
9Jayla Simmons22:53.0Farmington65.3
9Ava Schnell22:53.4Hanover-Horton65.2
9Addison Streetman22:53.6Dexter65.1
12Paige Hockley22:59.7Ann Arbor Pioneer63.1
11Leah White23:01.3Ann Arbor Skyline62.6
10Abigail Walther23:03.5Sault Ste. Marie61.8
10Alexis Flint23:04.3Hanover-Horton61.6
10Eleanor Vogel23:04.4Ann Arbor Pioneer61.5
12Meredith Vanderweide23:04.4Hillsdale Academy61.5
10Ella Caplea23:05.6Ann Arbor Gabriel Richard61.1
11Nicole Majors23:08.7Hartland60.1
9Leah Alarie23:09.0Birmingham Seaholm60.0
12Alyvia Lori23:10.0Sault Ste. Marie59.7
12Joanne Arbic23:13.3Sault Ste. Marie58.6
11Olivia Tritchka-St…23:13.8Hillsdale Academy58.4
11Sarah Anastasiadis23:14.7Jackson Lumen Christi58.1
10Alexa Burgess23:15.3Napoleon57.9
12Julia Burgess23:15.5Salem57.8
12Susie Pompi23:16.8Birmingham Seaholm57.4
11Emma Kerschbaum23:17.4Battle Creek Lakeview57.2
10Julianna Debozy23:18.0Hanover-Horton57.0
12Megan Kelly23:18.3Salem56.9
12Emma Hilbert23:20.2Ann Arbor Pioneer56.3
11Maria Humphreys23:20.3Ann Arbor Gabriel Richard56.2
10Hope Tebben23:20.5Lansing Christian56.2
12Anna Roberts23:22.3Hillsdale Academy55.6
10Sophie Owens23:22.4Berkley55.5
11Lucy Cousino23:25.3Ann Arbor Gabriel Richard54.6
10Mikayla Butters23:25.5Jackson54.5
10Angela Alvarez23:25.6Hillsdale Academy54.5
12Emily Carr23:26.3Ann Arbor Gabriel Richard54.2
11Samantha Sexton23:29.6Temperance Bedford53.1
10Alena Enerson23:29.8Berkley53.1
11Lainey Reynolds23:30.4Jackson Northwest52.9
10Serena O’Brien23:31.2Ann Arbor Skyline52.6
9Anika Hill23:32.2Temperance Bedford52.3
11Breanna Haines23:33.0Howell52.0
12Alexandra Soltis23:33.3Jackson Lumen Christi51.9
10Stella Niemi23:36.8Dexter50.7
9Donna Chamas23:37.1Dearborn50.6
12Rebecca Laakso23:38.4Howell50.2
12Emily Smilowski23:38.4Napoleon50.2
11Marissa Benn23:38.5Napoleon50.2
10Patricia Bonar23:41.2Ann Arbor Gabriel Richard49.3
10Jaya Boggess23:42.2Ann Arbor Pioneer48.9
10Ella Dipple23:43.4Salem48.5
11Olivia Pargoff23:43.5Howell48.5
9Allison DiTullio23:43.6Salem48.5
11Ella Bivens23:46.1Parma Western47.6
10Mai Wahby23:47.3Salem47.2
9Anna Ransom23:47.5Stockbridge47.2
11Madeline Hood23:47.7Ann Arbor Pioneer47.1
10Lily Mason23:49.0Hanover-Horton46.7
10Anneliese Jones23:50.6Ann Arbor Pioneer46.1
10Morgan Baker23:51.4Jonesville45.9
11Megan O’Day23:53.2Dexter45.3
12Margaret Lewis23:54.6Dexter44.8
9Reese Oberski23:56.0Temperance Bedford44.3
10Alexa Richardson23:57.3Birmingham Seaholm43.9
11Mackenzie Zapinski23:58.1Salem43.6
12Melanie Valtadoros23:58.4Ann Arbor Pioneer43.5
11Brianna Jones23:59.2Sault Ste. Marie43.3
10Madeleine Fleury23:59.4Ann Arbor Gabriel Richard43.2
9Lucy Pike23:59.4Ann Arbor Pioneer43.2
9Clare Flanagan24:01.1Ann Arbor Gabriel Richard42.6
10Joslyn Embury24:02.9Parma Western42.0
12Autumn Cuthbert24:03.3Tecumseh41.9
11Madhumitha Rajapra…24:05.1Farmington41.3
10Roya Ludwig24:05.2Birmingham Seaholm41.3
11Bella Berry24:05.9Hanover-Horton41.0
12Emily Woodyard24:08.6South Lyon East40.1
9Avery Dent24:12.0Ann Arbor Gabriel Richard39.0
9Priya Mericle24:14.5East Jackson38.2
11Stacia Hedrich24:16.0Jackson Northwest37.7
12Chloe Embury24:20.1Parma Western36.3
9Ambrielle Hoffman24:21.0Holly36.0
10Ella Mitchell24:21.8Dexter35.7
12Brynn Richardson24:22.1Tecumseh35.6
11Corinne Ritter24:22.2Lansing Christian35.6
9Anna Miedema24:27.8Kalamazoo Loy Norrix33.7
9Avanti Ganesan24:29.6Ann Arbor Pioneer33.1
10Lilly Tuite24:31.3Berkley32.6
12Elena Bowman24:32.3Ann Arbor Pioneer32.2
12Olivia Darnell24:37.0Napoleon30.7
11Alexandra Garcia24:37.2Napoleon30.6
11Anna Meyer24:37.6Lansing Christian30.5
10Sienna Tovar24:39.5Jackson29.8
9Hadley Feyen24:40.7Ann Arbor Pioneer29.4
12Anna Paine24:43.5Salem28.5
10Kate Graydon24:44.7Dexter28.1
11Kathleen Rachwal24:45.0Salem28.0
11Anna Hale24:48.5Ann Arbor Gabriel Richard26.8
12Georgia Hill24:59.5Kalamazoo Loy Norrix23.2
12Emily Peterson25:01.0Tecumseh22.7
9Edimari King25:01.9Farmington22.4
10Jacquelynne Napthen25:02.6Salem22.1
12Aspen Tapley25:03.4Jackson Northwest21.9
11Katelyn Dec25:04.2Temperance Bedford21.6
12Sidney Gipe25:04.9Stockbridge21.4
12Randi Bumstead25:05.3Sault Ste. Marie21.2
12Meghan Boyle25:06.0Birmingham Seaholm21.0
11Claire Stanko25:06.1Ann Arbor Pioneer21.0
10Lola Vencill25:06.8Dexter20.7
11Olivia Heckenlively25:06.8Hillsdale Academy20.7
9Addison Bruckman25:11.8Dexter19.1
10Mayson Scally25:13.3Hanover-Horton18.6
9Alayna Godfrey25:13.9East Kentwood18.4
11Monica Ristich25:15.2Ann Arbor Pioneer17.9
10Naideline Luna-Bucio25:18.6Sturgis16.8
12Kendal Sloan25:19.5Kalamazoo Loy Norrix16.5
9Jane Cousino25:21.1Ann Arbor Gabriel Richard16.0
9Grace Johnson-Sears25:22.6Birmingham Seaholm15.5
9Madeline Jenks25:22.9Grass Lake15.4
9Zoe Frederick25:23.0Ann Arbor Gabriel Richard15.3
11Maya Hitchingham25:23.8Jackson15.1
11Sahithi Nalamothu25:24.5Salem14.8
11Haley Guerra25:25.2Birmingham Seaholm14.6
9Adelle Robinson25:25.6Temperance Bedford14.5
10Luna Canziani25:25.7Parma Western14.4
9Eliana Johnson25:29.0Stockbridge13.3
10Aya Moughni25:29.6Dearborn13.1
12Lily Beebe25:29.6Jackson Lumen Christi13.1
10Maria Mandrelle25:31.9Jonesville12.4
10Makaya Stiles25:33.4Sturgis11.9
10Alexandria Mason25:33.8Ann Arbor Skyline11.7
11Marie Ross25:35.6Ann Arbor Gabriel Richard11.1
10Ava Wolski25:38.0Dearborn10.3
12Sarah Forrister25:40.0Coldwater9.7
10Julia Moxey25:40.0East Kentwood9.7
10Gabi Runnion25:41.1Salem9.3
12Erin Flaherty25:41.4Ann Arbor Gabriel Richard9.2
9Mia Sanchez25:45.3Jackson Lumen Christi7.9
9Jasmine Boggy25:45.9Ann Arbor Pioneer7.7
12Riley Marszalek25:53.6Battle Creek Lakeview5.1
12Ella Hawthorne25:54.1Kalamazoo Loy Norrix5.0
10Maddy McPherson25:58.5Jackson Northwest3.5
10Allison O’Dowd26:05.1Jackson Lumen Christi1.3
12Alexia Muzik26:05.3Battle Creek Lakeview1.2
12Katie Forrest26:05.9Ann Arbor Gabriel Richard1.0
9Libby Schone26:06.0Ann Arbor Gabriel Richard1.0

GradeNameTimeTeamRating
12Riley Hough15:14.0Hartland218.0
12Luke Venhuizen15:30.9Traverse City Central212.4
12Owen Johnson15:49.9Ann Arbor Pioneer206.0
11Nicholas Negru16:19.4Walled Lake Central196.2
11Micah Bauer16:22.3Traverse City Central195.2
12Parker LaGro16:27.9Battle Creek Lakeview193.4
12Alex Sullivan16:29.8Holland192.7
11Joe Muha16:32.6Traverse City Central191.8
11Rogan Melling16:36.1Hanover-Horton190.6
11Nicolas Fry16:36.4Ann Arbor Skyline190.5
12Wesley Hollowell16:40.1White Lake Lakeland189.3
12Joey Taverna16:40.2Clarkston189.3
10Brandon Anderson16:41.8Dexter188.7
12Luke Nelson16:42.5Salem188.5
11Sam Roberts16:43.5Dearborn188.2
12Sanjay Rao16:44.4Ann Arbor Skyline187.9
12James Harrison16:44.4Saline187.9
12Max Pfeiffer16:44.4Saline187.9
10Sebastian Ramirez16:45.3Royal Oak187.6
10Chaz Huthwaite16:45.8Rochester Hills Stoney Creek187.4
12Antonio Hall16:46.0East Kentwood187.3
12Ty Nagy16:46.7White Lake Lakeland187.1
12Jacob Walker16:47.2Brooklyn Columbia Central186.9
11Elliot Carey16:47.3Salem186.9
12Matt Ruud16:48.3Ann Arbor Pioneer186.6
11Roman Cortina16:49.2Ann Arbor Pioneer186.3
10Luke Suliman16:50.5Ann Arbor Skyline185.8
12Josh Lamb16:50.9Dexter185.7
10Vincent Peterson Sand16:51.1Ann Arbor Pioneer185.6
12Andrew Stern16:52.8Saline185.1
12Eric Giles16:54.1East Kentwood184.6
11Matthew Short16:54.8Berkley184.4
12John Aerts16:55.3Coldwater184.2
12Emil Schlueter16:57.6Hillsdale Academy183.5
11Sam Kromberg16:59.2Hartland182.9
11Caleb Bost17:02.6Battle Creek Lakeview181.8
10Aiden Moore17:03.7Battle Creek Lakeview181.4
10Pierce Grzymkowski17:04.5Holland181.2
12Adam Hauser17:06.6Dexter180.5
10Louis D’Souza17:08.6Troy179.8
10Truman Johnson17:09.7Saline179.4
11Jett Reimers17:11.8Traverse City Central178.7
12Brendan Washburn17:13.2Rochester Hills Stoney Creek178.3
12Nolan Tribu17:15.3Kalamazoo Loy Norrix177.6
11Owen Ackerman17:15.8Dexter177.4
12Zachary Rockafellow17:15.8Holly177.4
12Will Phillips17:16.0Traverse City Central177.3
12Chadwick Perrine17:16.1Jackson177.3
11Jason Whitton17:16.6Saline177.1
12Hunter Frank17:16.7Rochester Hills Stoney Creek177.1
12Adam Haag17:17.1Dearborn177.0
10Sunishthh Singh17:17.5Ann Arbor Gabriel Richard176.8
11Christopher Van Lent17:17.8Ann Arbor Skyline176.7
12Julio Jaime17:20.2Royal Oak175.9
12Gabe Nelson17:20.6Clinton175.8
11Benjamin Smith17:22.4Hartland175.2
12Russell Roberson17:22.4Salem175.2
12Alexander Ortiz17:22.4Temperance Bedford175.2
12Peter Florence17:22.5Ann Arbor Pioneer175.2
11Chase Klapthor17:23.2Ann Arbor Pioneer174.9
12Samuel Kulczak17:23.3Saline174.9
12Nathan Rehm17:24.4White Lake Lakeland174.5
12Kevin Grady17:24.6Battle Creek Lakeview174.5
12Weston Schroeder17:26.1Royal Oak174.0
11Micah Bolton17:26.2Stockbridge173.9
11Alex Hoffman17:26.4Dexter173.9
9Chris Anderson17:27.6Ann Arbor Pioneer173.5
11Samuel Jackson17:28.8Saline173.1
11Cody Aldridge17:30.2Sault Ste. Marie172.6
12Donovan Davis17:31.6Warren DeLaSalle172.1
12Dalton Satkowiak17:32.3Stockbridge171.9
12Isaac Tiernan17:33.8Holland171.4
10Noah Tiernan17:36.2White Lake Lakeland170.6
12Jack Hurst17:36.5Grosse Pointe South170.5
10Bryce Nowik17:36.6Clarkston170.5
12Michael Wholihan17:37.1Grosse Pointe South170.3
10Nolan Grant17:37.6Hillsdale170.1
11Henry LiPuma17:37.8Ann Arbor Pioneer170.1
11Collin Cook17:37.8Stockbridge170.1
12Tim Person17:38.1White Lake Lakeland170.0
12Jake Vallan17:39.1Grosse Pointe South169.6
12Matt Latzke17:39.4Walled Lake Central169.5
12Matt Hoop17:41.3Jackson Lumen Christi168.9
11Owen Lawrence17:41.5East Kentwood168.8
12Dhruv Dighrasker17:41.9Troy168.7
12Hunter Cybulla17:42.7White Lake Lakeland168.4
12Peyton Ross17:43.1Warren DeLaSalle168.3
11Zachery Sandin17:43.4Hartland168.2
10Evan Shepherd17:43.6Hanover-Horton168.1
10Alex Durocher17:44.7Traverse City Central167.8
10Andrew Floros17:46.4Clarkston167.2
12Peyton Williams17:46.4Jackson167.2
12Roger Wang17:48.0Troy166.7
12Ronak Parikh17:50.6Grosse Pointe South165.8
11Owen Murray17:51.6Rochester Hills Stoney Creek165.5
12Kyle Quint17:52.1Salem165.3
11Evan Suydam17:52.7Petersburg-Summerfield165.1
10Trevor Bratt17:54.5Hartland164.5
12Braeden Jones17:54.7Rochester Hills Stoney Creek164.4
10Oliver Moss17:55.2Berkley164.3
11Stewart Berryhill17:56.0Saline164.0
12Riley Eavou17:56.1Sault Ste. Marie164.0
9Isaiah Dinverno17:56.2Jackson Lumen Christi163.9
12Eric Neff17:56.8Clinton163.7
11Shane Pitcher17:57.2Saline163.6
12Jadon Sterken17:57.8Ann Arbor Pioneer163.4
12Griffin Bentley17:57.8Dexter163.4
11Anderson Corum17:58.1Birmingham Seaholm163.3
10Vishvaa Ravishankar17:58.7Troy163.1
11Jack Nelson17:59.1Salem163.0
9Akshat Arora17:59.1Troy163.0
12Collin Balla18:00.7Temperance Bedford162.4
11Wade Cunningham18:01.4Ann Arbor Pioneer162.2
11Anthony Pucillo18:01.6Ann Arbor Gabriel Richard162.1
10Thomas Caufield18:01.6Grosse Pointe South162.1
10Thomas Holm18:01.7Hillsdale Academy162.1
11Eric VonBargen18:02.1Ann Arbor Skyline162.0
11Brendan Downey18:02.1Grosse Pointe South162.0
10Gavin VanKampen18:02.1Jonesville162.0
11Haroun Omar18:02.4Coldwater161.9
11Thomas Kerber18:02.5Ann Arbor Pioneer161.8
11Sam Allen18:02.9Kalamazoo Loy Norrix161.7
12Zachary Sawin18:04.6Dexter161.1
10Gannon Shore18:04.8Jackson Lumen Christi161.1
12Devon Njonjo18:05.3Battle Creek Lakeview160.9
12Benjamin Baxter18:05.6Holly160.8
11Evan Lord18:06.9Rochester Hills Stoney Creek160.4
9Jack Martin18:07.1Grosse Pointe South160.3
12Mason Rosa18:08.0Holly160.0
10Solomon Strong18:08.1South Lyon East160.0
12Nathaniel Hobbs18:08.5Jackson159.8
12Alan Knowles18:08.5Jonesville159.8
11Andrew Grier18:09.4Ann Arbor Pioneer159.5
12Wesley Buonerba18:09.8Ann Arbor Gabriel Richard159.4
12Connor Bratt18:10.1Hartland159.3
11Merrick Guthrie18:10.1Royal Oak159.3
12Matthew Rankin18:10.3Grass Lake159.2
11Aidan Oakley18:10.8Dearborn159.1
12Matt Toner18:11.1Sturgis159.0
12Preston Ulery18:11.1Temperance Bedford159.0
9Evan Nickoles18:11.3East Kentwood158.9
10Gabe Bock18:11.3Temperance Bedford158.9
12Chas Mathis-Baliat…18:11.8Grosse Pointe South158.7
10Noah DeLand18:11.9Howell158.7
11Adam Andrews18:12.1Salem158.6
10Mason Jett18:13.3Ann Arbor Skyline158.2
11Oskar Wiedenhoeft18:13.8Kalamazoo Loy Norrix158.1
9Isaac Tanis18:14.0East Kentwood158.0
11Landon Wade18:14.1East Kentwood158.0
12Alex Ball18:14.4Ann Arbor Skyline157.9
11Grant Hoffman18:14.7Holly157.8
10Kyler Pequet18:15.3Napoleon157.6
11Jack Bondy18:15.3Rochester Hills Stoney Creek157.6
10Danny Ewing18:17.2Kalamazoo Loy Norrix156.9
12Noah Dinverno18:17.5Jackson Lumen Christi156.8
10Joey Stevenson18:17.6Ann Arbor Pioneer156.8
12Ryan Prielipp18:17.6Temperance Bedford156.8
12Mason Kipley18:17.9Saline156.7
12Jonathan Willis18:19.1Sault Ste. Marie156.3
10Jet Miller18:19.6Grosse Pointe South156.1
10Lucas Goodman18:21.2Clinton155.6
10Zachary Green18:21.5Sturgis155.5
10Joey Seale18:21.6Salem155.5
9Scott Smith18:21.9Dexter155.4
12Daniel Kamp18:22.2Rochester Hills Stoney Creek155.3
9Vincent Reagle18:23.9Hillsdale Academy154.7
12Brendan Kelly18:24.3South Lyon East154.6
12Hayden Clarke18:25.3Saline154.2
10Matthew Boor18:25.7Clarkston154.1
12Adam Robinson18:25.9Walled Lake Central154.0
10Tobias Tang18:27.0Ann Arbor Pioneer153.7
10Nate Petrosky18:28.1Salem153.3
11Austin Brown18:28.2Hanover-Horton153.3
11Owen Liepman18:28.2Saline153.3
10Ethan Wright18:28.3Stockbridge153.2
9Caleb Snyder18:29.9Dexter152.7
11Zack Gillies18:30.0Clinton152.7
12Jonah Richards18:30.7Hillsdale152.4
11James Benz18:30.8Ann Arbor Gabriel Richard152.4
11Caleb Diener18:30.9Hillsdale Academy152.4
10Matthew Dowling18:31.6Salem152.1
10Rodrique Shema18:31.8East Kentwood152.1
11Rylan Teddy18:32.0Dexter152.0
10Nick Runnion18:32.6Salem151.8
10James DeWitt18:33.1Coldwater151.6
10Bryce Bauman18:33.8Troy151.4
9Jacob Mack18:34.6South Lyon East151.1
10Patrick Donoghue18:34.7Ann Arbor Pioneer151.1
12Daniel Leahy18:34.9Royal Oak151.0
12Sam McDonough18:35.5Traverse City Central150.8
10Owen Nesbit18:35.9Ann Arbor Pioneer150.7
11Logan Haskins18:36.2Sault Ste. Marie150.6
11Ethan Duhl18:36.4Dearborn150.5
10Mitchell Robillard18:36.8Salem150.4
10Mason Monahan18:36.9Salem150.4
9Nicholas Balla18:37.2Temperance Bedford150.3
12Kahle Jones18:37.4Sault Ste. Marie150.2
9Aidan Ortiz18:37.7Temperance Bedford150.1
9Sam King18:38.3Clarkston149.9
11Brandon Rohrer18:38.3Hartland149.9
11Jonathan Gendich18:38.7Rochester Hills Stoney Creek149.8
11Alex Hammond18:38.8Royal Oak149.7
11Landon Wissink18:40.6Saline149.1
12Tyler Thibeault18:41.0Saline149.0
12Matthew Urbanczyk18:41.1Clinton149.0
10Sam Gibson18:41.2Dexter148.9
12Caleb Erickson18:41.6Jackson148.8
10Ewan Lemens18:43.2Ann Arbor Pioneer148.3
11Joshua Gagne18:43.6Temperance Bedford148.1
9Jaxson Nowik18:43.8Clarkston148.1
12Jack Terris18:44.1Saline148.0
12Paul Whalen18:46.6Hillsdale Academy147.1
11Zach Kubish18:48.5Parma Western146.5
11Kaden Jensen18:48.9Dexter146.4
12Ben Childs18:49.2Hanover-Horton146.3
10Mytchal Morrison18:51.4Jonesville145.5
10Liam Hoover18:52.2Howell145.3
12David Loomis18:52.4East Jackson145.2
11Andrew McNally18:52.9Saline145.0
12Hunter Bogar18:53.0Clarkston145.0
12Kyle Pine18:54.0Sault Ste. Marie144.7
12Jonny Adamczyk18:54.2Dexter144.6
12Keagan Long18:54.5Lansing Christian144.5
12Matthew Webb18:55.6Royal Oak144.1
10Luke Bounerba18:56.0Ann Arbor Gabriel Richard144.0
12Micah Conner18:56.0Jackson144.0
11Ismael Sanantonio18:56.4Ann Arbor Pioneer143.9
9Jordan Bunce18:56.4Temperance Bedford143.9
11Soren Nielsen18:56.7Ann Arbor Skyline143.8
9Reece Poole18:57.4Hillsdale Academy143.5
9Jacob Kosidlo18:58.2White Lake Lakeland143.3
12Cooper Franklin18:58.6Ann Arbor Pioneer143.1
12Gaige Smith18:59.0Jackson143.0
10Ben Botkin18:59.4Ann Arbor Pioneer142.9
11Dominik White18:59.9Saline142.7
9Lucas Wood19:00.3Howell142.6
10Matthew Schmidt19:00.6South Lyon East142.5
11Gavin Burt19:00.7Saline142.4
11Antonio Konopko19:00.9Salem142.4
12David John Daley19:02.0Sault Ste. Marie142.0
11Alex Engle19:02.5Walled Lake Central141.8
10Quinn O’Shea19:04.1Berkley141.3
12Jonathan Marx19:04.3Birmingham Seaholm141.2
12Stephen Wojtanowski19:05.3Ann Arbor Gabriel Richard140.9
11Joe Westemeir19:06.6Ann Arbor Gabriel Richard140.5
9Matthew McGill19:07.4Dexter140.2
9Drake Wallace19:07.5Howell140.2
9Aiden DePue19:07.6Temperance Bedford140.1
12Brendan Wright19:08.4Stockbridge139.9
9Jacob Yeager19:09.4Temperance Bedford139.5
9Miles Brown19:09.6Hillsdale139.5
11John Crissman19:10.0Birmingham Seaholm139.3
12Jacob Jones19:10.9Salem139.0
12Luke Swanger19:11.3Saline138.9
12Logan Neill19:11.4Parma Western138.9
9Samuel George19:12.0Berkley138.7
11Rohan Newton19:12.4Ann Arbor Gabriel Richard138.5
11Nathanial Passinault19:12.4Howell138.5
11Zachary Larson19:13.0Rochester Hills Stoney Creek138.3
9Jacob Van Houten19:13.8Troy138.1
9Jack Saltsman19:13.9Berkley138.0
10Adrik Ruch19:15.1Temperance Bedford137.6
11Jack Zaske19:15.3Saline137.6
12Grant Yeager19:15.5Temperance Bedford137.5
11Jesse Martin19:16.0Walled Lake Central137.3
11John Abraham19:16.4Birmingham Seaholm137.2
10Will Kletzka19:16.6Dexter137.1
11Caden Arntz19:17.6Clinton136.8
10Gabe Sanborn19:18.2Ann Arbor Pioneer136.6
11Archit Vig19:18.6Rochester Hills Stoney Creek136.5
12Joshua Darling19:19.5Napoleon136.2
9Connor Wallace19:19.8Howell136.1
11Jack Novotny19:20.6Kalamazoo Loy Norrix135.8
10Cooper Singleton19:20.6Parma Western135.8
12Michael Tippy19:21.1South Lyon East135.6
9Kiran Parekh19:21.4Ann Arbor Pioneer135.5
11Elijah Routson19:21.5Saline135.5
12Daniel Murphy19:23.2Birmingham Seaholm134.9
10Darren Tenka19:23.2Salem134.9
11Nathan Padbury19:23.4Jackson Lumen Christi134.9
11Kyle Sutton19:24.4Dexter134.5
10Michael Allen19:24.6East Jackson134.5
11Austin Lee19:25.2Battle Creek Lakeview134.3
12Cristian Huerta19:25.3Kalamazoo Loy Norrix134.2
9Titan Parker19:25.3Parma Western134.2
9Leland Weiser19:25.6Ann Arbor Skyline134.1
9Josiah Koch19:26.3Saline133.9
10Gianpaolo Patti19:26.4Ann Arbor Gabriel Richard133.9
10Carter Hill19:27.4Dexter133.5
10Mohamed Erreghaoui19:27.7Berkley133.4
10Oscar Connolly19:28.1Birmingham Seaholm133.3
9William Rosales19:28.3Saline133.2
12Andrew Covalle19:28.9Jackson133.0
11Nick Castrogiovanni19:29.0Ann Arbor Gabriel Richard133.0
10Jack Durivage19:29.6Temperance Bedford132.8
10Ethan Parker19:29.7Coldwater132.8
9Joel Miklosovic19:30.8Saline132.4
9Jacob Caruana19:31.1Salem132.3
10Jake Dalebout19:31.3Salem132.2
11Max Angel19:32.3Birmingham Seaholm131.9
12Antonio Romano19:32.7Walled Lake Central131.8
10Aiden Monroe19:33.0Hillsdale131.7
10Michael Davies19:34.7Birmingham Seaholm131.1
12Aidan Wright19:35.8Ann Arbor Gabriel Richard130.7
11Arnav Sawant19:36.1Rochester Hills Stoney Creek130.6
12Jack Vitick19:37.3White Lake Lakeland130.2
11James Postema19:38.4Birmingham Seaholm129.9
9Anthony Baker19:38.8Dexter129.7
11Christien Douthitt19:39.6Holly129.5
11Ethan Kent19:39.6Sturgis129.5
11Ethan Woodcox19:39.9Coldwater129.4
9Zachery Childress19:41.3Jonesville128.9
10DJ Chapman19:41.3Stockbridge128.9
10Josh Hennessy19:41.9Battle Creek Lakeview128.7
9Maclin Stidolph19:42.4East Kentwood128.5
11Daniel Schneider19:42.9Ann Arbor Gabriel Richard128.4
12Andrew Hughes19:43.3Salem128.2
10Aiden Cummins19:43.7Farmington128.1
12Anthony Youngblood19:44.2Warren DeLaSalle127.9
12Joe Williams19:45.5Ann Arbor Pioneer127.5
12Aidan Marco19:46.1White Lake Lakeland127.3
10Aldus Yun19:46.4Ann Arbor Pioneer127.2
9Alex Richards19:47.7Hillsdale Academy126.8
12Caebrean Falvey19:47.9Ann Arbor Gabriel Richard126.7
11Nick Schuette19:48.1Hanover-Horton126.6
11Brandon Strickert19:48.1Holly126.6
11Alex Romano19:48.5Walled Lake Central126.5
11Adam Booher19:49.1Holly126.3
12Miles Przybylski19:50.0Temperance Bedford126.0
12Chris Smith19:52.3Saline125.2
11Gage Wert19:53.1Holly125.0
11Matt Dombrowski19:53.8Ann Arbor Pioneer124.7
10Andrew Kolozsvary19:54.0Salem124.7
9Cooper Case19:54.1Ann Arbor Gabriel Richard124.6
11Brendan LaFave19:55.2Ann Arbor Gabriel Richard124.3
11Ryan Walker19:55.7Holly124.1
9Theodore Sykes19:56.5Jackson123.8
9Hudson Cooper19:59.0Jackson Northwest123.0
12Matthew Alarie19:59.4Birmingham Seaholm122.9
11Gregor Morton19:59.5Saline122.8
11Anthony Kruszka20:00.8Temperance Bedford122.4
9Kaleb Dekoeyer20:01.2Temperance Bedford122.3
9Gabe Mahler20:03.9White Lake Lakeland121.4
12Joe Gillman20:05.0Clinton121.0
11Owen Quayle20:05.3Kalamazoo Loy Norrix120.9
11Oliver Wisniewski20:06.3Berkley120.6
10Xavier Sumner20:07.4East Jackson120.2
12Zeke Strong20:08.3South Lyon East119.9
11Andrew England20:08.6Jackson119.8
12Andrew Ferguson20:10.0Jackson Lumen Christi119.3
9Matthew Verellen20:10.0White Lake Lakeland119.3
10Julian Snelling20:10.3Ann Arbor Pioneer119.2
10Ethan Thomas20:10.4Temperance Bedford119.2
10Ethan Umberger20:10.6Saline119.1
11Mike Dombrowski20:10.9Ann Arbor Pioneer119.0
9Emmet Thompson20:11.1Howell119.0
10Gavin Zuver20:12.5Brooklyn Columbia Central118.5
10Ike Lindley20:12.9Hillsdale Academy118.4
10Christopher Poshadlo20:13.0Holly118.3
12Carter Bankowski20:14.1Saline118.0
9Ian Smith20:14.7Holly117.8
9Collin McMillian20:15.3Holly117.6
12Donovan Sanchez20:17.5East Kentwood116.8
12Cooper Franklin20:17.8Ann Arbor Pioneer116.7
9Sawyer Ulery20:19.2Temperance Bedford116.3
9Eli Hinkleman20:20.3Temperance Bedford115.9
11Dominik Fleury20:20.5Ann Arbor Gabriel Richard115.8
9Logan Stephenson20:21.1Salem115.6
11Matthew DePlanche20:21.2Saline115.6
9Benjamin Peura20:22.5Farmington115.2
10Canaan Hogan20:23.5Kalamazoo Loy Norrix114.8
9Jonas Enriquez20:23.6Temperance Bedford114.8
10Peter Caruana20:23.7Salem114.8
9Max Martin20:23.8Salem114.7
12Hayden Schad20:23.9Saline114.7
9Collin Eckermann20:24.0Saline114.7
9Gabe Scott20:24.2White Lake Lakeland114.6
12Bryce Blackledge20:25.5Hanover-Horton114.2
9Jack Gorton20:26.8Brooklyn Columbia Central113.7
9Thomas Endres20:28.3Saline113.2
10Jack Burin20:28.4Dexter113.2
10Joshua Postuma20:29.7Grass Lake112.8
11Derban Demeuse20:31.3Parma Western112.2
10Aiden Murley20:31.4Salem112.2
11Aiden Thorne20:31.9Napoleon112.0
9Guy LaBrecque20:32.7Saline111.8
11Brenden Yob20:33.1Napoleon111.6
12Elliott Varnum20:33.5Ann Arbor Pioneer111.5
9Wyatt Boteler20:34.2Grass Lake111.3
10Yuma Tsubouchi20:34.4Dexter111.2
9Eli Hills20:34.4Sault Ste. Marie111.2
10Dwight Van’tzelfde20:35.8Holly110.7
10Johnathan Ball20:36.0Temperance Bedford110.7
9Owen Zink20:36.5Jackson Lumen Christi110.5
12Justin Lim20:41.2Ann Arbor Pioneer108.9
9Drew Clingerman20:43.1Jackson Northwest108.3
9Leo Popp20:44.5Salem107.8
10Wyatt Hockley20:45.7Ann Arbor Pioneer107.4
11Josh Jensen20:46.1Petersburg-Summerfield107.3
11Martin Mubiru20:46.1South Lyon East107.3
12Luke Dobert20:46.5Dearborn107.2
12Jude Olney20:46.5Parma Western107.2
12Elijah Fenstermaker20:46.7Heritage Christian Academy107.1
12David Maynard20:48.1Grass Lake106.6
10Andrew Montieth20:49.4Dearborn106.2
12Theodore Miesner20:49.4Farmington106.2
11Marcus Holota20:51.8Dearborn105.4
11Austin Darr20:52.2Warren DeLaSalle105.3
10David Fielder20:53.9Hanover-Horton104.7
9Ben Iobe20:58.8Mendon103.1
10Ryan Sparklin20:59.2Holly102.9
12Joey Messano21:00.2Birmingham Seaholm102.6
9Alex Nemecek21:01.4Ann Arbor Skyline102.2
11Collin Doederlein21:05.0Parma Western101.0
11Chase Chalawich21:07.0Holly100.3
10Evan Marsee21:08.2Ann Arbor Pioneer99.9
9Luke Ankeney21:09.4Ann Arbor Pioneer99.5
12Donovan Cook21:10.4East Jackson99.2
10Christopher Eads21:10.6Lansing Christian99.1
12Connor Corry21:10.6Parma Western99.1
9Danny Perezrios21:12.1Holly98.6
12Thomas DesRosiers21:13.6Dexter98.1
11Aiden Burke21:14.1Saline98.0
10Elijah Ames21:15.0Saline97.7
12Nathan Ricketts21:16.3Jackson Northwest97.2
9Bryce Bales21:16.4Dexter97.2
11Landon Wilson21:17.7Dexter96.8
12Oscar Thompson21:18.8Warren DeLaSalle96.4
10David Martin21:20.9Parma Western95.7
9William Melton21:21.1Parma Western95.6
9Matthew Sweet21:21.6Ann Arbor Gabriel Richard95.5
12Joshua Caldwell21:22.4Warren DeLaSalle95.2
10Charlie Munson21:23.7Dexter94.8
12Rupin Lamba21:24.0Salem94.7
12Jackson Byers21:24.5Grass Lake94.5
10Torin Friedrichs21:24.7Birmingham Seaholm94.4
9Grayson Borick21:26.8Kalamazoo Loy Norrix93.7
12Noah Eustice21:28.5Ann Arbor Gabriel Richard93.2
9Ryan Davenport21:33.8White Lake Lakeland91.4
10Owen Bieselin21:35.6Holly90.8
12Nathan Iacona21:36.0Warren DeLaSalle90.7
11Wyatt Reed21:37.1Sturgis90.3
12Aiden Crooks21:38.7Mendon89.8
11Bradley Wright21:39.6Jonesville89.5
10Josh Pratt21:40.0Salem89.3
12Trevor Weaver21:40.2Napoleon89.3
9Jordan Marsh21:41.6Saline88.8
11Ted Stanley21:43.5Ann Arbor Pioneer88.2
9Alex Watson21:43.9Dexter88.0
9Ayden McDonald21:45.0White Lake Lakeland87.7
10Carter Verkerk21:45.3Saline87.6
12Grant Kahler21:46.4Kalamazoo Loy Norrix87.2
9Brent Maurer21:46.4Sault Ste. Marie87.2
11Liam Miller21:49.5Jackson Lumen Christi86.2
12Nikhil Patel21:54.5Salem84.5
10Michael Dooley21:54.9Saline84.4
10Koen Lanker21:54.9Saline84.4
9Theodore Gault21:56.7Petersburg-Summerfield83.8
10Derek Yaek21:58.9Warren DeLaSalle83.0
9Andrew Irgang21:59.0Saline83.0
11Jett Roles21:59.4Saline82.9
9Henry Francis22:01.1Farmington82.3
11Jack Ganzel22:05.1Parma Western81.0
11Landon Bush22:05.3Saline80.9
12Gage Battle22:05.4Warren DeLaSalle80.9
9Evan Craddock22:07.8Parma Western80.1
10Nicholas Bennett22:09.1Saline79.6
11Owen Mineweaser22:09.2Jackson79.6
12Andrew Petik22:10.1Dexter79.3
10Alan Zheng22:10.3Salem79.2
10Keyshawn Liggins22:10.5Kalamazoo Loy Norrix79.2
11Colin Alexander22:10.6Saline79.1
11Justin Anderson22:11.5Sault Ste. Marie78.8
11John Larocca22:13.5Warren DeLaSalle78.2
9Victor Monnier22:13.9Ann Arbor Pioneer78.0
10Ruben Spencer22:15.5Grass Lake77.5
9Sean Flaherty22:18.2Ann Arbor Gabriel Richard76.6
9Benjamin Eros22:18.2Grass Lake76.6
10Jacob Norman22:19.4Jonesville76.2
12Ian Nadeau22:19.6Salem76.1
11Evan Girard22:21.5Jackson Northwest75.5
9Braiden Renfer22:24.8Parma Western74.4
9Breslin Sharp22:27.3Parma Western73.6
10Trey Howland22:28.0Jackson Northwest73.3
11Garrett Zuber22:28.9White Lake Lakeland73.0
9Marty Watson22:30.2Dexter72.6
9Patrick (PJ) Carty22:30.6Dexter72.5
10Alex Fruth22:34.0Saline71.3
9Brant Maley22:35.6Ann Arbor Pioneer70.8
9Marco Dewitt-Campos22:37.4Salem70.2
10Alex Foufopoulos22:40.0Ann Arbor Pioneer69.3
12Nathan Wilder22:40.9Farmington69.0
9Ryan Friedholm22:47.4Saline66.9
11Gavin Kowalski22:48.8Warren DeLaSalle66.4
11Stephen Hertzfeld22:49.9East Jackson66.0
9Liam Shaner22:50.9Petersburg-Summerfield65.7
10Chris Coffer22:53.8Dexter64.7
10Roman Bonfiglio22:55.6Saline64.1
10JJ Stewart22:56.6Parma Western63.8
10Kevin Jayne22:59.0Jackson Northwest63.0
10Charlie Seip22:59.1Warren DeLaSalle63.0
11Seth McComas23:10.5Dexter59.2
11Dylan Gloar23:13.9Jackson Northwest58.0
11Brad Muth23:19.5Holly56.2
9Carter Hausman23:20.6Kalamazoo Loy Norrix55.8
10Colton Raffensberger23:22.8East Jackson55.1
11Shawn Profozich23:24.6Salem54.5
9Mckal Berry23:29.8Sault Ste. Marie52.7
10Braiden Welch23:34.3Temperance Bedford51.2
9Malachi Tucker23:37.0Grass Lake50.3
10Evan Pierfelice23:41.7Salem48.8
9Kiren Sankaran23:44.2Saline47.9
10Brendan Ratell23:49.6Jackson Northwest46.1
10CJ Baffy23:49.8Salem46.1
10Matthew Hayes23:50.0Brooklyn Columbia Central46.0
10Harold Crowner23:50.3Saline45.9
11Yuri Carnino24:03.8Saline41.4
10Adison Din24:04.1Dexter41.3
10Sean Peck24:07.2Salem40.3
11Matthew Cichon24:10.2Holly39.3
12Sid Muralidharan24:10.7Salem39.1
9Braden Lige24:13.7Hillsdale38.1
9Seth Plummer24:16.1Hillsdale Academy37.3
11Nathan Robke24:17.6Dexter36.8
11Sean Kavanaugh24:19.5Saline36.2
9John Hawver24:20.1Kalamazoo Loy Norrix36.0
10Jaxson Cicotte24:24.1Dexter34.6
10Max Stanger24:25.1Holly34.3
10Vladyslav Hnitsa24:26.1Sturgis34.0
9Joshua Treat24:28.9Dexter33.0
9Benjamin Ashwell24:29.6Grass Lake32.8
9Jack Robichaud24:30.2Ann Arbor Skyline32.6
9Logan Kipley24:31.1Saline32.3
9Cameron Russell24:31.3Ann Arbor Pioneer32.2
9Parker Razelun24:32.0Ann Arbor Skyline32.0
9Wesley Jenkins24:32.4Ann Arbor Skyline31.9
10Jack Hollingsworth24:36.1Ann Arbor Pioneer30.6
12Ethan Shuler24:39.2Salem29.6
9Tucker Godfrey24:42.0Dexter28.7
10Tristin Kramer24:45.1Temperance Bedford27.6
12Alexander Zervogia…24:45.9Saline27.4
9Cash Newton24:47.0Kalamazoo Loy Norrix27.0
10Ezekiel Fenstermaker24:47.4Heritage Christian Academy26.9
12Ethan Weishuhn24:52.8Farmington25.1
12Fred Lindow24:52.8Farmington25.1
9Elijah Maitland24:56.7Grass Lake23.8
10Noah Kuepfer25:00.2Lansing Christian22.6
12Zach Williams25:14.4Jackson Northwest17.9
10Brice Van Zant25:17.0Hillsdale17.0
9Aidan Petik25:18.4Dexter16.5
9Max VanDorin25:41.6Sault Ste. Marie8.8
10Charlie Barker25:46.1Salem7.3
9Greg Lapinski25:54.7Ann Arbor Gabriel Richard4.4
12Jonathan McKaye25:59.2Salem2.9
11Jacob Beer26:00.7Napoleon2.4
10Josh Johnson26:08.0Dexter0.0

Leave a Reply

Fill in your details below or click an icon to log in:

WordPress.com Logo

You are commenting using your WordPress.com account. Log Out /  Change )

Google photo

You are commenting using your Google account. Log Out /  Change )

Twitter picture

You are commenting using your Twitter account. Log Out /  Change )

Facebook photo

You are commenting using your Facebook account. Log Out /  Change )

Connecting to %s